EHI
27 28 28 27 25 24 22 22 22 23 22 20 20 21 20 18 17 17 16 14 14 12 9 8 8 8 9 9 7 6 6 5 4 4 6 6 6 6 4 3 2 1 0
29 27 25 25 25 23 22 22 22 23 22 21 21 20 19 18 18 17 15 14 12 10 8 8 7 8 8 8 7 5 4 4 3 4 5 5 5 4 3 3 2 1 0
30 29 26 25 23 23 24 24 23 21 21 22 23 21 18 17 17 16 15 13 10 7 6 6 5 5 6 5 4 4 3 3 3 3 4 4 3 2 1 2 2 2 1
32 33 33 31 28 27 26 25 22 20 20 21 21 20 17 15 13 13 13 12 9 5 4 4 3 3 4 3 2 1 2 2 2 2 3 2 1 0 1 2 2 1 0
37 37 40 41 37 30 26 23 22 20 19 19 18 18 15 10 7 7 8 8 7 5 4 4 3 3 2 2 1 0 1 1 0 1 2 1 1 0 1 2 2 1 0
41 41 43 43 37 28 22 20 21 20 19 19 18 16 11 5 2 2 3 4 5 5 5 4 3 2 2 1 0 0 0 0 0 0 0 0 0 0 0 1 1 0 0
43 42 39 36 32 25 19 18 19 19 18 18 17 14 9 3 0 0 1 2 3 4 4 4 4 3 2 2 1 0 0 0 0 0 0 0 0 0 0 0 0 0 0
42 40 35 31 29 25 21 20 20 19 18 16 15 13 8 3 1 0 0 1 3 3 3 4 4 4 3 2 1 0 0 0 0 0 0 0 0 0 0 0 0 0 0
38 36 33 31 29 27 26 25 23 19 16 14 13 12 9 5 1 0 0 1 3 3 3 3 4 3 3 2 1 1 0 0 0 0 0 0 0 0 0 0 0 0 0
36 33 32 32 30 28 29 28 23 18 14 12 12 12 10 6 3 1 1 2 3 4 3 3 3 3 3 2 2 2 1 0 0 0 0 0 0 0 0 0 0 0 0
36 33 31 32 30 28 27 25 21 17 14 12 12 11 11 9 5 2 1 2 4 4 4 3 3 3 2 1 1 1 1 0 0 0 1 1 0 0 0 0 0 0 1
34 30 28 28 26 24 24 22 19 16 14 13 12 11 11 11 7 3 1 1 3 4 4 3 3 2 1 0 0 0 0 0 0 1 2 1 0 0 1 1 1 1 2
31 28 25 24 23 22 21 19 18 16 15 14 13 12 11 12 9 4 1 1 1 2 2 2 1 1 0 0 0 0 0 0 0 1 2 2 1 1 1 2 2 3 3
29 26 23 21 22 22 20 18 17 15 14 13 13 11 10 10 8 3 1 1 0 0 1 1 1 1 0 0 1 1 0 0 0 1 2 3 2 1 1 2 3 3 2
28 24 19 17 19 20 19 16 14 11 10 9 9 8 6 5 3 1 0 0 0 0 0 0 1 2 1 0 1 1 1 1 1 1 2 3 3 3 2 3 3 2 1
26 21 14 10 11 13 14 13 9 6 5 4 4 3 2 1 0 0 0 0 0 0 0 0 1 1 1 0 1 1 1 2 2 1 1 1 3 3 3 4 4 3 1
24 19 11 7 6 8 11 11 9 5 3 2 1 1 1 0 0 0 0 0 0 0 0 0 0 0 0 0 0 0 1 1 2 3 2 2 2 3 4 5 5 4 3
22 18 12 8 6 7 10 11 9 7 5 3 1 0 0 0 0 0 0 0 0 0 0 0 0 0 0 0 0 0 0 0 1 3 3 3 3 3 4 4 4 4 4
19 16 12 8 5 5 8 9 9 8 5 2 0 0 0 0 0 0 0 0 0 0 0 0 0 0 0 1 1 1 1 1 1 2 2 2 2 3 3 3 2 3 3
16 13 10 6 3 3 4 6 8 7 3 1 0 0 0 0 0 0 0 0 0 0 0 0 0 1 1 2 2 2 2 2 2 1 1 1 1 2 2 2 1 2 2
14 12 9 5 4 4 3 3 5 5 2 1 0 0 0 0 0 0 0 0 0 0 0 0 1 2 3 3 3 3 3 3 3 2 1 0 0 1 1 1 1 1 1
13 12 9 7 5 5 3 1 1 1 1 2 2 1 0 0 0 0 0 0 0 0 0 0 1 2 3 3 3 3 3 3 2 2 1 0 0 0 0 0 1 1 0
10 10 9 7 4 2 1 0 0 1 2 3 3 2 1 1 1 1 1 0 0 0 0 0 1 3 3 3 3 3 3 3 1 1 1 0 0 0 0 0 0 0 0
5 5 6 5 3 1 1 1 1 2 2 3 3 2 1 2 2 1 1 0 0 0 0 1 2 3 3 3 3 3 2 2 1 0 0 0 0 0 0 0 0 0 0
2 3 5 6 4 3 3 3 2 2 2 2 3 2 2 3 3 2 1 0 0 0 1 1 2 3 3 2 2 1 1 1 0 0 0 0 0 0 0 0 0 0 0
1 3 5 6 6 5 5 4 3 1 1 1 2 2 2 3 3 3 2 1 0 0 1 1 1 2 2 2 1 0 0 0 0 0 0 0 0 0 0 0 0 0 0
Wind_Speed
3 3 2 2 2 1 1 1 0 1 1 1 1 1 1 1 1 1 1 2 1 2 2 2 2 2 2 2 1 1 1 0 0 0 0 1 1 1 1 1 2 2 3
3 3 3 2 2 1 1 1 1 1 1 1 1 1 1 2 2 2 2 2 2 2 2 2 2 2 2 2 2 2 1 0 1 0 0 0 1 1 2 1 1 0 1
4 4 3 2 1 1 1 1 1 1 0 1 1 1 1 2 2 2 2 2 2 2 2 2 2 2 2 2 2 2 1 1 1 0 1 1 1 1 1 0 0 0 1
4 4 3 2 2 1 1 1 1 1 1 1 1 1 1 2 3 3 2 2 2 2 2 2 2 2 2 2 1 2 1 2 1 0 0 0 1 1 1 0 0 0 1
3 3 3 2 2 1 1 1 0 0 1 1 1 1 1 2 3 3 3 2 2 2 1 1 2 2 2 1 1 1 1 1 1 0 0 1 0 0 0 1 0 0 1
2 3 2 3 2 2 1 1 1 1 1 1 1 2 2 3 4 5 4 3 2 2 2 1 0 1 3 3 2 1 0 0 0 0 0 0 1 1 1 1 1 1 1
2 2 2 2 2 2 2 2 1 1 1 1 1 2 2 3 4 4 4 2 2 2 2 2 3 2 2 1 0 1 1 2 3 2 2 2 2 1 1 1 2 2 2
2 2 2 2 2 2 2 2 2 2 1 1 1 1 1 1 1 3 4 3 2 2 2 1 1 2 3 2 2 1 1 2 3 2 2 2 2 1 1 2 2 2 2
2 2 2 1 1 2 2 2 2 1 1 1 1 1 1 1 0 1 3 2 1 1 1 1 1 2 2 3 1 2 2 2 2 2 2 3 4 4 3 1 2 2 3
2 2 2 1 1 1 2 2 1 1 2 2 1 1 1 1 2 1 1 2 2 1 1 1 2 1 2 2 1 2 2 3 3 3 2 3 4 4 6 4 4 3 2
1 2 2 2 1 1 1 1 1 2 2 2 1 1 2 2 4 3 2 2 2 2 2 0 1 1 1 2 3 3 3 4 3 3 3 3 2 3 3 3 3 3 2
1 1 2 1 1 1 2 2 2 2 2 2 2 2 2 2 3 4 4 3 3 3 2 1 0 1 3 4 4 4 5 4 3 3 2 2 1 1 1 1 1 2 3
1 1 1 1 1 1 2 3 3 3 3 3 2 2 2 2 2 3 4 4 3 3 2 2 3 4 4 4 5 5 4 2 3 2 2 2 2 1 1 1 1 2 3
1 1 1 2 3 2 2 3 3 2 2 2 2 2 1 1 1 1 1 2 3 3 3 4 5 5 5 4 3 3 3 2 3 2 2 2 2 1 1 1 2 2 2
1 1 2 2 2 2 2 1 2 1 1 1 1 1 1 1 0 1 1 1 2 2 3 3 3 2 3 2 2 2 2 2 2 2 2 2 2 2 2 2 2 2 2
1 2 2 2 2 2 2 2 1 2 3 3 2 0 1 1 2 1 1 1 3 3 3 4 3 3 2 2 2 2 2 2 2 2 2 2 2 2 3 3 2 2 2
2 2 2 2 2 2 2 3 2 2 2 3 4 4 4 3 3 3 3 3 4 3 3 4 3 2 2 2 2 2 2 2 2 2 2 2 2 3 3 3 3 2 2
3 3 3 3 3 3 2 2 2 2 2 3 5 7 7 7 6 5 3 2 4 3 4 3 3 2 2 2 2 2 2 2 2 2 2 2 3 3 3 3 3 3 3
3 2 2 3 3 3 3 3 3 2 2 2 2 3 6 6 6 6 4 4 5 3 3 2 2 2 2 2 2 2 2 2 2 2 2 3 2 3 3 4 3 4 3
3 4 4 3 4 3 3 3 2 2 2 2 1 1 2 3 3 4 4 5 5 3 2 2 2 2 2 2 2 2 2 2 2 2 2 2 3 3 4 4 4 3 3
3 3 3 3 4 3 3 3 2 2 2 2 1 1 2 3 4 3 3 3 3 3 2 2 2 2 2 2 2 3 3 3 2 2 2 3 3 3 4 3 3 3 3
3 2 2 3 2 2 3 3 2 2 2 2 1 2 3 3 3 2 1 2 2 2 2 2 2 2 2 2 2 2 3 3 3 3 3 3 3 4 4 4 3 3 3
4 3 2 1 2 1 2 3 3 2 2 3 2 1 1 1 2 2 2 2 2 2 2 2 2 2 1 2 2 1 2 2 3 4 4 5 4 4 3 4 4 4 3
3 2 1 0 1 2 2 3 3 3 3 2 2 2 1 1 2 2 2 2 2 2 2 1 2 3 3 2 2 2 2 3 4 4 5 6 5 4 3 3 4 4 4
3 3 2 1 1 2 2 2 2 2 2 2 2 2 2 1 2 2 2 2 2 2 3 2 2 2 3 4 4 3 3 3 3 4 4 5 5 4 4 4 3 3 3
3 3 2 1 1 1 2 2 2 2 1 2 2 2 2 2 2 2 2 2 3 3 3 3 2 2 2 2 2 2 1 2 3 4 4 4 5 4 4 3 4 3 3
Wind_Direction
149 142 125 145 164 180 134 105 51 23 19 350 351 358 2 1 2 355 330 353 3 337 333 355 348 332 339 334 325 314 283 190 142 321 16 47 62 114 119 138 148 165 175
146 146 149 155 156 154 128 127 120 63 30 3 4 356 359 13 8 2 345 359 358 346 346 0 353 342 348 340 339 334 344 37 131 163 149 132 71 94 128 157 154 201 175
159 159 153 162 153 138 110 110 117 97 61 48 33 11 11 13 7 357 359 356 358 0 1 9 360 348 340 346 353 342 351 356 72 157 227 164 133 106 94 67 317 10 277
157 152 152 162 161 152 132 124 101 86 64 59 35 19 26 24 12 3 7 15 14 12 15 25 11 1 342 331 333 342 4 20 30 5 99 61 74 95 99 121 285 254 286
141 143 143 142 127 137 141 127 73 6 35 52 55 32 37 35 20 12 351 18 356 349 6 27 27 38 50 23 350 22 7 14 26 14 64 36 30 64 338 281 277 283 274
137 138 135 139 146 157 152 156 118 70 56 56 46 44 27 25 30 27 16 357 342 341 343 338 346 51 64 70 51 41 0 291 333 12 292 258 260 264 285 279 280 283 291
156 146 150 156 161 169 189 156 148 147 156 167 96 83 62 41 24 19 5 328 315 328 342 343 339 26 53 51 26 287 270 255 231 223 226 240 249 253 259 272 271 275 276
151 154 170 179 173 179 179 174 174 175 185 177 130 130 122 69 39 13 342 303 310 325 325 336 357 33 9 2 334 319 292 283 260 230 221 234 251 249 235 250 253 260 257
157 163 163 174 186 200 193 190 194 184 188 202 201 176 137 121 107 10 340 300 292 312 345 24 47 64 13 349 318 308 307 300 286 268 246 243 248 260 252 245 248 252 261
167 161 154 158 183 209 195 191 195 195 222 218 179 166 174 170 155 190 295 291 297 303 270 125 79 62 356 346 292 287 294 304 312 311 286 265 241 234 234 227 229 238 250
132 142 141 161 198 181 156 159 189 213 232 231 198 209 212 188 169 200 223 268 303 302 296 287 86 103 264 283 280 272 273 289 285 272 264 251 223 219 217 216 219 221 240
87 115 128 160 230 152 141 175 209 219 230 227 223 227 225 196 183 200 212 235 286 300 305 334 17 252 269 272 269 273 278 286 278 273 267 256 241 244 239 223 217 224 236
95 117 162 191 211 170 191 199 211 215 229 226 215 224 223 191 173 196 210 235 257 278 309 306 288 272 265 261 254 266 264 260 264 268 272 269 255 247 247 243 257 239 241
157 188 198 203 209 202 215 214 222 225 233 241 238 244 238 152 107 119 254 249 252 261 287 282 270 264 264 267 257 249 240 256 272 269 270 273 275 251 244 238 243 240 257
195 217 221 221 217 208 204 237 246 248 242 257 305 319 331 16 115 205 245 308 309 311 298 277 264 251 245 247 250 241 229 239 252 269 288 292 283 274 266 260 257 251 248
225 238 241 238 226 226 209 209 145 152 137 143 156 190 75 133 161 174 194 263 295 305 282 263 259 256 260 258 259 256 247 245 262 273 277 274 275 278 279 277 270 256 256
239 248 266 265 248 242 239 225 196 175 206 218 214 208 208 214 225 242 263 291 285 275 257 261 263 261 260 253 263 272 268 253 248 259 262 262 268 274 278 273 265 258 254
247 245 261 269 269 255 249 244 228 216 212 215 214 216 217 223 234 248 258 293 273 242 246 263 271 274 278 277 273 272 276 272 256 253 256 258 267 273 274 274 266 255 254
263 265 270 285 284 278 268 255 247 232 237 233 187 200 216 224 235 249 235 242 261 264 260 265 272 278 282 283 279 275 280 276 274 264 254 254 262 268 271 273 274 268 259
250 255 258 274 276 276 277 277 272 261 252 251 239 206 177 202 224 226 221 237 252 260 266 271 275 281 288 291 287 277 277 274 274 273 274 274 275 272 272 270 267 265 256
265 244 236 266 280 289 294 294 296 291 283 282 278 192 203 243 253 247 222 231 253 266 267 280 281 280 272 273 282 282 281 284 285 288 289 285 282 280 276 272 270 267 265
276 270 247 259 275 301 311 308 302 290 276 272 232 214 221 246 269 272 262 252 259 262 261 267 279 279 272 265 271 282 282 289 297 297 295 283 273 273 277 275 271 269 264
271 278 283 287 307 301 271 285 287 286 288 285 274 243 222 275 304 308 306 306 284 279 281 283 292 298 302 292 292 302 312 307 298 293 291 285 279 269 265 269 268 270 264
273 273 273 294 287 280 277 280 287 290 290 292 298 289 251 261 290 288 290 296 304 307 308 303 304 318 333 338 347 21 18 336 317 308 305 294 282 268 260 260 258 255 259
266 267 262 237 239 267 282 288 298 314 322 318 306 301 302 294 296 298 304 313 314 313 317 312 314 339 357 4 14 18 10 356 331 321 305 292 286 278 271 264 256 251 249
263 266 268 276 272 266 275 291 306 317 313 302 301 311 314 315 316 319 323 329 322 316 305 295 308 349 5 3 23 34 3 331 321 309 294 282 274 272 280 278 273 260 246